Location: Devore Heights
(34.2372°N, 117.4156°W)
Time: 19:54:56
(UTC+00:00)

Vanguard 1 Rocket - Pass Details

Date: 15 September 2024
Orbit: 650 x 4218 km, 34.3° (Epoch: 04 October)

Event Time Altitude Azimuth Distance (km) Brightness Sun altitude
Rises 19:57:18 0° 285° (WNW) 8,451 12.3 58.2°
Reaches altitude 10° 20:05:51 10° 272° (W) 7,377 12.2 58.0°
Maximum altitude 20:20:58 20° 235° (SW) 5,874 12.3 57.2°
Drops below altitude 10° 20:33:05 10° 194° (SSW) 5,723 12.2 56.4°
Sets 20:38:36 0° 178° (S) 6,137 12.1 55.9°
